Change the Weather History Date:

Friday, November 22, 2013

  Actual Average (KEAU) Record (KEAU)
Temperature  
Mean Temperature 24 °F 29 °F  
Max Temperature 31 °F 37 °F 62 °F (2012)
Min Temperature 17 °F 21 °F -6 °F (1921)
Degree Days  
Heating Degree Days 41 36  
Month to date heating degree days 656  
Since 1 July heating degree days 1440  
Cooling Degree Days 0 0  
Month to date cooling degree days 0  
Year to date cooling degree days 579  
Moisture  
Dew Point 13 °F    
Average Humidity 64    
Maximum Humidity 87    
Minimum Humidity 36    
Precipitation  
Precipitation 0.00 in 0.06 in 0.90 in (1963)
Month to date precipitation 1.39  
Year to date precipitation 29.53  
Snow  
Snow 0.00 in 0.30 in 4.00 in (1996)
Month to date snowfall 3.7  
Since 1 July snowfall 4.1  
Since 1 September snowfall 4.1  
Snow Depth -    
Sea Level Pressure  
Sea Level Pressure 30.48 in    
Wind  
Wind Speed 9 mph (West)    
Max Wind Speed 18 mph    
Max Gust Speed 25 mph    
Visibility 9 miles    
Events Snow    
T = Trace of Precipitation, MM = Missing Value Source: NWS Daily Summary

Daily Weather History Graph

Daily Weather History Graph

Search for Another Location

Airport or City:

Trip Planner

Search our weather history database for the weather conditions in past years. The results will help you decide how hot, cold, wet, or windy it might be!

Date:

Astronomy

Nov. 22, 2013 Rise Set
Actual Time 7:14 AM CST 4:32 PM CST
Civil Twilight 6:42 AM CST 5:04 PM CST
Nautical Twilight 6:06 AM CST 5:40 PM CST
Astronomical Twilight 5:31 AM CST 6:15 PM CST
Moon 9:08 PM CST (11/22) 10:55 AM CST (11/22)
Length of Visible Light 10h 22m
Length of Day
9h 18m
Waning Gibbous, 78% of the Moon is Illuminated
Nov 22
Waning Gibbous
Nov 25
Last Quarter
Dec 2
New
Dec 9
First Quarter
Dec 17
Full

Hourly Weather History & Observations

Time (CST) Temp. Windchill Dew Point Humidity Pressure Visibility Wind Dir Wind Speed Gust Speed Precip Events Conditions
12:15 AM 25.0 °F 13.6 °F 21.6 °F 87% 30.45 in 1.2 mi NNW 12.7 mph 17.3 mph N/A Snow Light Snow
12:35 AM 24.6 °F 13.2 °F 21.2 °F 87% 30.45 in 1.2 mi NNW 12.7 mph - N/A Snow Light Snow
12:55 AM 24.4 °F 14.2 °F 20.8 °F 86% 30.46 in 1.5 mi NNW 10.4 mph 16.1 mph N/A Snow Light Snow
1:15 AM 24.8 °F 15.3 °F 20.1 °F 82% 30.46 in 5.0 mi NW 9.2 mph - N/A Snow Light Snow
1:35 AM 25.3 °F 14.1 °F 16.7 °F 70% 30.47 in 10.0 mi NNW 12.7 mph - N/A   Overcast
1:55 AM 25.3 °F 15.3 °F 16.2 °F 68% 30.47 in 10.0 mi NW 10.4 mph - N/A   Overcast
2:15 AM 25.2 °F 15.7 °F 15.8 °F 68% 30.48 in 10.0 mi NNW 9.2 mph - N/A   Overcast
2:35 AM 24.8 °F 14.6 °F 15.1 °F 67% 30.49 in 10.0 mi NW 10.4 mph - N/A   Overcast
2:55 AM 24.8 °F 17.9 °F 15.6 °F 68% 30.48 in 10.0 mi NW 5.8 mph - N/A   Mostly Cloudy
3:15 AM 24.3 °F 14.6 °F 15.6 °F 70% 30.48 in 10.0 mi NW 9.2 mph - N/A   Scattered Clouds
3:35 AM 24.1 °F 15.2 °F 15.6 °F 70% 30.48 in 10.0 mi WNW 8.1 mph - N/A   Scattered Clouds
3:55 AM 23.7 °F 13.3 °F 15.3 °F 70% 30.48 in 10.0 mi NW 10.4 mph 16.1 mph N/A   Scattered Clouds
4:15 AM 23.5 °F 15.4 °F 15.1 °F 70% 30.49 in 10.0 mi WNW 6.9 mph - N/A   Scattered Clouds
4:35 AM 23.4 °F 15.2 °F 15.1 °F 71% 30.49 in 10.0 mi WNW 6.9 mph - N/A   Clear
4:55 AM 22.8 °F 12.2 °F 14.5 °F 71% 30.48 in 10.0 mi WNW 10.4 mph - N/A   Clear
5:15 AM 22.1 °F 12.8 °F 14.0 °F 71% 30.48 in 10.0 mi WNW 8.1 mph - N/A   Clear
5:35 AM 20.7 °F 13.0 °F 14.2 °F 76% 30.51 in 10.0 mi West 5.8 mph - N/A   Clear
5:55 AM 19.8 °F 11.9 °F 13.8 °F 78% 30.51 in 10.0 mi WNW 5.8 mph - N/A   Clear
6:15 AM 19.4 °F 11.5 °F 13.6 °F 78% 30.52 in 10.0 mi WNW 5.8 mph - N/A   Clear
6:35 AM 18.9 °F 8.0 °F 13.1 °F 78% 30.53 in 10.0 mi WNW 9.2 mph - N/A   Clear
6:55 AM 18.5 °F 10.4 °F 12.4 °F 77% 30.53 in 10.0 mi WNW 5.8 mph - N/A   Clear
7:15 AM 18.0 °F 11.1 °F 12.2 °F 78% 30.53 in 10.0 mi West 4.6 mph - N/A   Clear
7:35 AM 17.6 °F 10.7 °F 12.4 °F 80% 30.54 in 10.0 mi West 4.6 mph - N/A   Clear
7:55 AM 18.3 °F 11.5 °F 12.9 °F 79% 30.53 in 10.0 mi West 4.6 mph - N/A   Clear
8:15 AM 18.5 °F 11.7 °F 13.1 °F 79% 30.53 in 10.0 mi WNW 4.6 mph - N/A   Clear
8:35 AM 19.0 °F 12.3 °F 13.1 °F 78% 30.52 in 10.0 mi West 4.6 mph - N/A   Clear
8:55 AM 19.6 °F 11.7 °F 13.5 °F 77% 30.53 in 10.0 mi West 5.8 mph - N/A   Clear
9:15 AM 20.1 °F 11.3 °F 13.8 °F 77% 30.54 in 10.0 mi West 6.9 mph - N/A   Clear
9:35 AM 21.0 °F 13.4 °F 14.0 °F 74% 30.55 in 10.0 mi WNW 5.8 mph - N/A   Clear
9:55 AM 21.6 °F 13.0 °F 14.2 °F 73% 30.55 in 10.0 mi West 6.9 mph - N/A   Clear
10:15 AM 22.6 °F 15.3 °F 14.0 °F 69% 30.55 in 10.0 mi West 5.8 mph - N/A   Clear
10:35 AM 23.5 °F 17.6 °F 14.5 °F 69% 30.54 in 10.0 mi WSW 4.6 mph - N/A   Clear
10:55 AM 24.1 °F 17.0 °F 14.2 °F 66% 30.54 in 10.0 mi WSW 5.8 mph - N/A   Clear
11:15 AM 24.8 °F 20.5 °F 14.2 °F 64% 30.53 in 10.0 mi WSW 3.5 mph - N/A   Clear
11:35 AM 26.2 °F 22.1 °F 13.8 °F 59% 30.51 in 10.0 mi WSW 3.5 mph - N/A   Clear
11:55 AM 27.0 °F 20.5 °F 13.5 °F 57% 30.51 in 10.0 mi SW 5.8 mph - N/A   Clear
12:15 PM 28.0 °F 21.7 °F 13.3 °F 54% 30.50 in 10.0 mi SW 5.8 mph - N/A   Clear
12:35 PM 29.1 °F 22.1 °F 13.3 °F 52% 30.49 in 10.0 mi SW 6.9 mph - N/A   Clear
12:55 PM 30.0 °F 22.4 °F 13.5 °F 50% 30.48 in 10.0 mi SW 8.1 mph - N/A   Clear
1:15 PM 30.2 °F 21.9 °F 14.7 °F 53% 30.48 in 10.0 mi SSW 9.2 mph - N/A   Clear
1:35 PM 30.7 °F 21.4 °F 13.6 °F 49% 30.46 in 10.0 mi SW 11.5 mph - N/A   Clear
1:55 PM 31.1 °F 23.1 °F 12.4 °F 46% 30.46 in 10.0 mi SSW 9.2 mph - N/A   Clear
2:15 PM 31.1 °F 21.9 °F 12.6 °F 46% 30.45 in 10.0 mi SSW 11.5 mph - N/A   Clear
2:35 PM 31.6 °F 22.1 °F 9.3 °F 39% 30.44 in 10.0 mi SW 12.7 mph - N/A   Clear
2:55 PM 31.5 °F 21.8 °F 8.6 °F 38% 30.43 in 10.0 mi SW 12.7 mph - N/A   Clear
3:15 PM 31.1 °F 21.4 °F 7.2 °F 37% 30.43 in 10.0 mi SSW 12.7 mph - N/A   Clear
3:35 PM 30.7 °F 20.9 °F 6.6 °F 36% 30.43 in 10.0 mi SW 12.7 mph - N/A   Clear
3:55 PM 29.7 °F 22.0 °F 11.7 °F 47% 30.44 in 10.0 mi SW 8.1 mph - N/A   Clear
4:15 PM 29.7 °F 19.6 °F 7.2 °F 39% 30.43 in 10.0 mi WSW 12.7 mph 18.4 mph N/A   Clear
4:35 PM 28.6 °F 18.7 °F 7.5 °F 41% 30.44 in 10.0 mi WSW 11.5 mph - N/A   Clear
4:55 PM 27.9 °F 18.4 °F 8.4 °F 44% 30.44 in 10.0 mi WSW 10.4 mph - N/A   Clear
5:15 PM 26.2 °F 17.8 °F 10.6 °F 52% 30.43 in 10.0 mi SSW 8.1 mph - N/A   Clear
5:35 PM 25.5 °F 16.9 °F 12.0 °F 57% 30.43 in 10.0 mi SSW 8.1 mph - N/A   Clear
5:55 PM 24.8 °F 16.9 °F 11.8 °F 58% 30.43 in 10.0 mi SW 6.9 mph - N/A   Clear
6:15 PM 24.4 °F 20.1 °F 11.3 °F 57% 30.43 in 10.0 mi WSW 3.5 mph - N/A   Clear
6:35 PM 24.8 °F 19.1 °F 11.3 °F 57% 30.43 in 10.0 mi West 4.6 mph - N/A   Clear
6:55 PM 25.3 °F 17.6 °F 11.7 °F 56% 30.43 in 10.0 mi WSW 6.9 mph - N/A   Clear
7:35 PM 24.4 °F 16.5 °F 11.5 °F 58% 30.43 in 10.0 mi West 6.9 mph - N/A   Clear
7:55 PM 24.6 °F 15.8 °F 12.0 °F 59% 30.44 in 10.0 mi WNW 8.1 mph - N/A   Mostly Cloudy
8:15 PM 25.7 °F 15.1 °F 17.1 °F 70% 30.45 in 7.0 mi WNW 11.5 mph 19.6 mph N/A Snow Light Snow
8:35 PM 24.8 °F 14.6 °F 18.3 °F 76% 30.45 in 10.0 mi WNW 10.4 mph - N/A   Overcast
8:55 PM 24.4 °F 13.5 °F 18.9 °F 79% 30.46 in 5.0 mi WNW 11.5 mph 17.3 mph N/A Snow Light Snow
9:15 PM 24.4 °F 10.6 °F 18.0 °F 76% 30.46 in 7.0 mi WNW 18.4 mph 21.9 mph N/A Snow Light Snow
9:35 PM 23.5 °F 9.4 °F 13.6 °F 66% 30.47 in 10.0 mi NW 18.4 mph 25.3 mph N/A   Overcast
9:55 PM 22.5 °F 9.4 °F 11.7 °F 63% 30.48 in 10.0 mi WNW 15.0 mph 23.0 mph N/A   Mostly Cloudy
10:15 PM 22.1 °F 10.0 °F 11.3 °F 63% 30.48 in 10.0 mi WNW 12.7 mph 23.0 mph N/A   Scattered Clouds
10:35 PM 21.9 °F 9.8 °F 12.0 °F 66% 30.50 in 10.0 mi WNW 12.7 mph 19.6 mph N/A Snow Light Snow
10:55 PM 21.6 °F 10.6 °F 12.6 °F 68% 30.51 in 7.0 mi WNW 10.4 mph 20.7 mph N/A Snow Light Snow
11:15 PM 21.4 °F 7.5 °F 10.8 °F 64% 30.51 in 10.0 mi NW 16.1 mph 23.0 mph N/A   Overcast
11:35 PM 21.0 °F 8.6 °F 9.3 °F 61% 30.52 in 10.0 mi WNW 12.7 mph 18.4 mph N/A   Overcast
11:55 PM 20.1 °F 5.4 °F 7.7 °F 59% 30.52 in 10.0 mi NW 17.3 mph - N/A   Overcast